This demonstration page uses our WeatherBlox Daily Observations layout. Learn more.

Left ArrowRight Arrow

Hourly Observations for May 22, 2022

Temp ( °F °C ) Dew Point ( °F °C ) Humidity (%) Winds ( mph kmh ) Pressure ( in mb ) Visibility ( mi km ) Precip ( " mm )
12:15 am 00:15 Partly Cloudy 81 27 70 21 70 70 SSW 6 9 30.07 1018 10 16 0.00 0.00
12:35 am 00:35 Partly Cloudy 79 26 70 21 74 74 S 9 15 30.07 1018 10 16 0.00 0.00
12:55 am 00:55 Partly Cloudy 79 26 70 21 74 74 W 6 9 30.05 1018 10 16 0.00 0.00
1:15 am 01:15 Clear 79 26 70 21 74 74 S 3 6 30.05 1018 10 16 0.00 0.00
1:35 am 01:35 Clear 79 26 70 21 74 74 Calm 30.04 1017 10 16 0.00 0.00
1:55 am 01:55 Clear 77 25 70 21 79 79 Calm 30.04 1017 10 16 0.00 0.00
2:15 am 02:15 Clear 75 24 70 21 83 83 Calm 30.05 1017 10 16 0.00 0.00
2:35 am 02:35 Clear 73 23 70 21 89 89 W 3 6 30.05 1018 10 16 0.00 0.00
2:55 am 02:55 Clear 73 23 70 21 89 89 Calm 30.05 1018 10 16 0.00 0.00
3:15 am 03:15 Clear 73 23 70 21 89 89 SSW 5 7 30.04 1017 10 16 0.00 0.00
3:35 am 03:35 Clear 73 23 70 21 89 89 SW 5 7 30.04 1017 10 16 0.00 0.00
3:55 am 03:55 Clear 73 23 70 21 89 89 SW 6 9 30.04 1017 10 16 0.00 0.00
4:15 am 04:15 Clear 73 23 70 21 89 89 SW 6 9 30.04 1017 10 16 0.00 0.00
4:35 am 04:35 Clear 73 23 68 20 83 83 SW 3 6 30.04 1017 10 16 0.00 0.00
4:55 am 04:55 Clear 73 23 68 20 83 83 SW 3 6 30.04 1017 10 16 0.00 0.00
5:15 am 05:15 Clear 73 23 68 20 83 83 S 3 6 30.04 1017 10 16 0.00 0.00
5:35 am 05:35 Clear 73 23 68 20 83 83 Calm 30.04 1017 10 16 0.00 0.00
5:55 am 05:55 Sunny 72 22 68 20 88 88 Calm 30.05 1018 10 16 0.00 0.00
6:15 am 06:15 Sunny 73 23 68 20 83 83 S 6 9 30.05 1018 10 16 0.00 0.00
6:35 am 06:35 Sunny 72 22 68 20 88 88 Calm 30.06 1018 10 16 0.00 0.00
6:55 am 06:55 Sunny 72 22 68 20 88 88 Calm 30.06 1018 10 16 0.00 0.00
7:15 am 07:15 Sunny 72 22 68 20 88 88 S 3 6 30.07 1018 10 16 0.00 0.00
7:35 am 07:35 Sunny 72 22 70 21 94 94 S 3 6 30.08 1019 10 16 0.00 0.00
7:55 am 07:55 Sunny 72 22 70 21 94 94 Calm 30.08 1019 10 16 0.00 0.00
8:15 am 08:15 Sunny 72 22 70 21 94 94 Calm 30.08 1019 10 16 0.00 0.00
8:35 am 08:35 Sunny 73 23 70 21 89 89 SSW 6 9 30.09 1019 10 16 0.00 0.00
8:55 am 08:55 Sunny 73 23 70 21 89 89 S 5 7 30.09 1019 10 16 0.00 0.00
9:15 am 09:15 Sunny 73 23 70 21 89 89 SSE 3 6 30.08 1019 10 16 0.00 0.00
9:35 am 09:35 Sunny 75 24 70 21 83 83 Calm 30.08 1018 10 16 0.00 0.00
9:55 am 09:55 Sunny 77 25 70 21 79 79 Calm 30.07 1018 10 16 0.00 0.00
10:15 am 10:15 Sunny 79 26 70 21 74 74 S 3 6 30.06 1018 10 16 0.00 0.00
10:35 am 10:35 Sunny 81 27 70 21 70 70 WSW 3 6 30.06 1018 10 16 0.00 0.00
10:55 am 10:55 Sunny 81 27 72 22 74 74 Calm 30.06 1018 10 16 0.00 0.00
11:15 am 11:15 Sunny 82 28 72 22 70 70 S 3 6 30.06 1018 10 16 0.00 0.00
11:35 am 11:35 Sunny 84 29 72 22 66 66 SSW 7 11 30.06 1018 10 16 0.00 0.00
11:55 am 11:55 Sunny 86 30 72 22 62 62 Calm 30.06 1018 10 16 0.00 0.00
12:15 pm 12:15 Sunny 86 30 72 22 62 62 S 5 7 30.05 1018 10 16 0.00 0.00
12:35 pm 12:35 Sunny 86 30 72 22 62 62 SW 3 6 30.04 1017 10 16 0.00 0.00
12:55 pm 12:55 Sunny 88 31 72 22 59 59 S 6 9 30.03 1017 10 16 0.00 0.00
1:15 pm 13:15 Sunny 88 31 72 22 59 59 S 3 6 30.02 1016 10 16 0.00 0.00
1:35 pm 13:35 Sunny 88 31 72 22 59 59 Calm 30.02 1016 10 16 0.00 0.00
1:55 pm 13:55 Partly Cloudy 90 32 72 22 55 55 SSW 5 7 30.01 1016 10 16 0.00 0.00
2:15 pm 14:15 Partly Cloudy 90 32 72 22 55 55 SW 3 6 30.00 1016 10 16 0.00 0.00
2:35 pm 14:35 Partly Cloudy 90 32 72 22 55 55 SSW 3 6 29.99 1015 10 16 0.00 0.00
2:55 pm 14:55 Partly Cloudy 91 33 72 22 52 52 SSW 7 11 29.98 1015 10 16 0.00 0.00
3:15 pm 15:15 Partly Cloudy 91 33 72 22 52 52 S 8 13 29.97 1015 10 16 0.00 0.00
3:35 pm 15:35 Sunny 91 33 72 22 52 52 SSW 13 20 29.96 1015 10 16 0.00 0.00
3:55 pm 15:55 Partly Cloudy 90 32 70 21 52 52 Calm 29.96 1014 10 16 0.00 0.00
4:15 pm 16:15 Mostly Cloudy with Nearby Thunderstorms 81 27 75 24 84 84 SW 28 44 30.00 1016 4 6 0.03 0.76
4:35 pm 16:35 Mostly Cloudy with Light Rain 77 25 72 22 83 83 SSW 8 13 29.99 1016 7 11 0.25 6.35
4:55 pm 16:55 Sunny with Nearby Thunderstorms 79 26 72 22 79 79 Calm 29.98 1015 10 16 0.25 6.35
5:15 pm 17:15 Sunny 81 27 70 21 70 70 ENE 3 6 29.97 1015 10 16 0.00 0.00
5:35 pm 17:35 Sunny 82 28 72 22 70 70 Calm 29.96 1015 10 16 0.00 0.00
5:55 pm 17:55 Sunny 81 27 72 22 74 74 SE 8 13 29.96 1015 10 16 0.00 0.00
6:15 pm 18:15 Mostly Cloudy 81 27 72 22 74 74 SE 8 13 29.96 1015 10 16 0.00 0.00
6:35 pm 18:35 Cloudy 79 26 72 22 79 79 N 7 11 29.98 1015 10 16 0.00 0.00
6:55 pm 18:55 Cloudy with Strong Thunderstorms 73 23 72 22 94 94 WNW 21 33 30.06 1018 5 8 0.07 1.78
7:15 pm 19:15 Cloudy with Strong Thunderstorms 70 21 70 21 100 100 SSW 8 13 30.07 1018 2 2 0.46 11.68
7:35 pm 19:35 Cloudy with Nearby Thunderstorms 70 21 70 21 100 100 WSW 3 6 30.07 1018 7 11 0.56 14.22
7:55 pm 19:55 Cloudy with Nearby Thunderstorms 70 21 70 21 100 100 SSW 6 9 30.08 1019 5 8 0.59 14.99
8:15 pm 20:15 Cloudy with Heavy Rain 70 21 70 21 100 100 SW 7 11 30.09 1019 3 5 0.06 1.52
8:35 pm 20:35 Mostly Cloudy with Light Rain 70 21 70 21 100 100 SW 3 6 30.10 1019 5 8 0.11 2.79
8:55 pm 20:55 Mostly Cloudy 70 21 70 21 100 100 Calm 30.11 1020 10 16 0.11 2.79
9:15 pm 21:15 Mostly Cloudy 70 21 70 21 100 100 W 5 7 30.10 1019 10 16 0.00 0.00
9:35 pm 21:35 Partly Cloudy 70 21 70 21 100 100 NW 3 6 30.11 1020 10 16 0.00 0.00
9:55 pm 21:55 Mostly Cloudy 70 21 70 21 100 100 N 3 6 30.11 1020 10 16 0.00 0.00
10:15 pm 22:15 Partly Cloudy 72 22 70 21 94 94 NNW 7 11 30.12 1020 10 16 0.00 0.00
10:35 pm 22:35 Partly Cloudy 70 21 70 21 100 100 NNW 8 13 30.12 1020 10 16 0.00 0.00
10:55 pm 22:55 Clear 70 21 68 20 94 94 N 3 6 30.12 1020 10 16 0.00 0.00
11:15 pm 23:15 Clear 70 21 66 19 88 88 Calm 30.13 1020 10 16 0.00 0.00
11:35 pm 23:35 Clear 70 21 66 19 88 88 NNE 3 6 30.13 1020 10 16 0.00 0.00
11:55 pm 23:55 Clear 70 21 64 18 83 83 N 7 11 30.13 1020 10 16 0.00 0.00

Powered by AerisWeather